Regional Weather Roundup
Issued by NWS

Home | Current Version | Previous Version | Graphics & Text | Print | Product List | Glossary On
Versions: 1 2 3 4 5 6 7 8 9 10 11 12 13 14 15 16 17 18 19 20 21 22 23 24 25 26 27 28 29 30 31 32 33 34 35 36 37 38 39 40 41 42 43 44 45 46 47 48 49 50
613
ASUS45 KBOU 252307
RWRCO

WEATHER ROUNDUP FOR COLORADO
NATIONAL WEATHER SERVICE DENVER/BOULDER CO
500 PM MDT WED MAY 25 2016

NOTE: "FAIR" INDICATES FEW OR NO CLOUDS BELOW 12000 FEET WITH NO
SIGNIFICANT WEATHER AND/OR OBSTRUCTIONS TO VISIBILITY.

COZ001>005-013-030-031-260000-
...NORTHWEST COLORADO...

CITY           SKY/WX    TMP DP  RH WIND       PRES   REMARKS
CRAIG          FAIR      65  24  21 W16       30.01S
HAYDEN         FAIR      64  21  19 W17G24    30.02S
MEEKER         NOT AVBL
MOUNT WERNER   NOT AVBL
STEAMBOAT SPGS PTSUNNY   62  20  20 W18G24    30.02F
WALDEN         FAIR      57  18  21 SW15G30   30.09S
$$

COZ006>008-011-260000-
...WEST CENTRAL VALLEYS...

CITY           SKY/WX    TMP DP  RH WIND       PRES   REMARKS
GRAND JUNCTION FAIR      73  17  12 W15G25    29.95F
MONTROSE       FAIR      73   9   8 W23G30    30.00F
EAGLE          MOSUNNY   66  18  15 W12G21    30.04F
RIFLE          FAIR      73  22  14 W20G25    29.97F
DELTA          FAIR      78   8   7 W12G22    29.97F
NUCLA          FAIR      72   7   8 SW16G26   30.06F
$$

COZ017>023-064>068-260000-
...SOUTHWEST COLORADO...

CITY           SKY/WX    TMP DP  RH WIND       PRES   REMARKS
DURANGO        FAIR      69   5   8 SW15G21   30.08F
CORTEZ         FAIR      73  13  10 SW13G21   30.02F
PAGOSA SPRINGS FAIR      65  -1   7 W10G20    30.14F
TELLURIDE      FAIR      58   4  11 W15       30.19S
WOLF CREEK PAS FAIR      39   9  28 SW18G37   30.36S
$$

COZ009-010-012-014-032>034-037-058>063-260000-
...CENTRAL COLORADO...

CITY           SKY/WX    TMP DP  RH WIND       PRES   REMARKS
ASPEN          FAIR      62  13  14 S12G17    30.09S
BUENA VISTA    FAIR      66   1   7 SW16G25   30.07S
COPPER MTN     NOT AVBL
BERTHOUD PASS  FAIR      36  28  75 W23       30.30S
COTTONWOOD PAS FAIR      59 -18   4 SW17G25   30.18S
GUNNISON       FAIR      63   9  12 W10       30.12S
KREMMLING      FAIR      66   9  10 W20G26    30.06S
LEADVILLE      FAIR      54  -3   9 W20G26    30.18S
MONARCH PASS   FAIR      43  10  26 W25G37    30.39S
SALIDA         FAIR      71   4   7 W14G24    30.11S
SUNLIGHT       CLOUDY    45  21  39 SW3       30.27S
WILKERSON PASS PTSUNNY   50   7  17 S6        30.28R
$$

COZ069>075-260000-
...SAN LUIS VALLEY/SANGRE DE CRISTO MOUNTAINS...

CITY           SKY/WX    TMP DP  RH WIND       PRES   REMARKS
ALAMOSA        FAIR      69   5   8 W17G25    30.08F
LA VETA PASS   FAIR      59  10  14 S6G21     30.23S
SAGUACHE       FAIR      68   9  10 W21G26    30.07S
$$

COZ035-036-038>040-260000-
...NORTHERN COLORADO FRONT RANGE...

CITY           SKY/WX    TMP DP  RH WIND       PRES   REMARKS
DENVER INTL AP PTSUNNY   69  41  36 E10       29.93F
DMNS CITY PARK   N/A     71  36  27 E6G12     29.92S
AURORA         PTSUNNY   69  40  34 E13       29.94S
FRONT RANGE AP PTSUNNY   72  37  28 E10G18    29.93F
ERIE MUNI ARPT FAIR      68  40  34 E9        29.92S
BOULDER MUN AP FAIR      70  39  32 E7        29.93S
CENTENNIAL     PTSUNNY   71  36  27 E13G18    29.94S
BROOMFIELD     PTSUNNY   68  43  40 NE6       29.94F
FORT COLLINS   FAIR      70  39  32 S7        29.92S
LONGMONT       FAIR      74  38  27 SE3       29.94S
$$

COZ041-046-047-076>085-087-088-260000-
...PIKES PEAK/PALMER DIVIDE AND SOUTHERN FOOTHILLS...

CITY           SKY/WX    TMP DP  RH WIND       PRES   REMARKS
COLO. SPRINGS  PTSUNNY   76  11   8 S21G26    29.96S
A. F. ACADEMY  FAIR      70  10  10 S12G18    29.96S
SCHRIEVER AFB  NOT AVBL
ELLICOTT       FAIR     N/A N/A N/A SW22G28   29.95F
FALCON         FAIR      71  11  10 SW18G26   30.00S
FORT CARSON    FAIR      75  22  14 S15       29.92F
LIMON          LGT RAIN  71  34  25 S8        29.94F
MONUMENT HILL  FAIR      63  30  29 W9        30.01S
TRINIDAD       FAIR      79  13   8 SE8       29.94F
$$

COZ042>045-048>051-090-091-260000-
...NORTHEAST COLORADO...

CITY           SKY/WX    TMP DP  RH WIND       PRES   REMARKS
GREELEY ARPT   FAIR      75  37  25 SE12      29.91F
AKRON          FAIR      74  43  32 VRB5      29.92F
BURLINGTON     FAIR      78  40  25 VRB6      29.91F
WRAY           PTSUNNY   70  50  49 S17G23    29.91R
STERLING       FAIR      66  43  42 N17G26    29.93F
HOLYOKE        FAIR      79  45  29 CALM      29.91R
FORT MORGAN    FAIR      74  35  24 SE5       29.92F
$$

COZ086-089-092>099-260000-
...SOUTHEAST COLORADO...

CITY           SKY/WX    TMP DP  RH WIND       PRES   REMARKS
PUEBLO         FAIR      83  18   9 E10G21    29.86F
LA JUNTA       FAIR      84  14   7 SW5       29.86F
LAMAR          FAIR      85  27  12 S9        29.85F
SPRINGFIELD      N/A     82  16   8 S9G21     29.90F
$$




USA.gov is the U.S. government's official web portal to all federal, state and local government web resources and services.